TIMESTAMP,CO2_1_1_1,H2O_1_1_1,TAU_1_1_1,TAU_SSITC_TEST_1_1_1,H_1_1_1,H_SSITC_TEST_1_1_1,LE_1_1_1,LE_SSITC_TEST_1_1_1,FC_1_1_1,FC_SSITC_TEST_1_1_1,WD_0_0_1,WS_0_0_1,WS_MAX_0_0_1,U_SIGMA_0_0_1,V_SIGMA_0_0_1,W_SIGMA_0_0_1,USTAR_0_0_1,MO_LENGTH_0_0_1,ZL_0_0_1,FETCH_MAX_0_0_1,FETCH_70_0_0_1,FETCH_80_0_0_1,FETCH_90_0_0_1,PA_0_0_1,RH_0_0_1,TA_0_0_1,VPD_0_0_1,T_SONIC_0_0_1,T_SONIC_SIGMA_0_0_1
[yyyymmddHHMMSS],[mmolCO2 mol-1],[mmolH2O mol-1],[kg m-1 s-2],[#],[W m-2],[#],[W m-2],[#],[umolCO2 m-2 s-1],[#],[Decimal degrees],[m s-1],[m s-1],[m s-1],[m s-1],[m s-1],[m s-1],[m],[#],[m],[m],[m],[m],[kPa],[%],[deg C],[hPa],[deg C],[deg C]
20220827003000,404.63286094521925,17.256538347705739,3.5818017149040669E-002,0,-13.937159620247961,0,11.041649744591837,0,-0.78863669783623769,1,223.23640214174688,1.8664266299320935,3.2345769282400996,0.41276274111085426,0.29156409532018307,0.23259022038689325,0.18016673858112073,35.032233260034857,0.54235765841612504,152.77215554682579,1432.0000000000000,2638.0000000000000,7168.0000000000000,93.865983647352436,64.262413793103448,21.272068965517235,9.0104519999982973,21.690008397420343,0.33676087866952881
20220827010000,406.54409403150657,17.361334308375756,2.3918566104281971E-002,0,-11.067123939271845,0,4.6009884575138154,0,0.96905978592857833,0,223.00335200777528,2.1161703595483363,3.4699138754944667,0.33352274174297553,0.29197505024295295,0.19487689484180418,0.14701053808201209,23.970705280750657,0.79263416647392881,279.95913163325764,2777.0000000000000,5198.0000000000000,-9999.,93.881685471571188,68.063333333333333,20.439000000000021,7.6499188491950827,20.932382237752336,0.35860830053048870
20220827013000,406.54985991932074,17.203373112068899,1.3314822868786368E-002,0,-4.3658803743943020,0,1.1965249766659007,2,0.27861865044746414,1,228.90653854663023,2.2023941377812100,3.3921100130358810,0.33150499479371748,0.28102071215315344,0.17387804070911145,0.10962162585728934,25.194840477265998,0.75412265527714795,474.70888812267935,5129.0000000000000,9839.0000000000000,-9999.,93.893538826822919,68.656333333333336,20.152666666666676,7.3762391694178566,20.645589516533846,0.34466560291876963
20220827020000,407.82412941944284,17.204162869892983,2.7486718240666917E-002,0,-9.4092651075582499,1,4.9955740124884329,1,0.89911628847270375,0,222.22840924531656,2.2030386495166603,3.6932709759629030,0.34876980674175273,0.32284530061799155,0.23296338276513776,0.15736363310195373,34.585941149830923,0.54935616520277586,252.26948656388163,2534.0000000000000,4761.0000000000000,-9999.,93.909192336908959,70.707333333333338,19.680999999999983,6.6950308282259225,20.216705342443447,0.48118632694697677
20220827023000,411.08600692545895,16.910227176261916,6.9255422998067112E-002,0,-8.5692823377139202,2,6.4743306524958006,0,-0.29450260625315572,2,220.08431955275049,2.3741802388739219,4.5809440686428182,0.53890159652158354,0.40910781845555771,0.31896569314790535,0.24951955477699789,151.40065381772413,0.12549483453931895,102.88294558234074,188.10283735705056,225.11105418137990,281.81232718563763,93.922375379123267,71.941666666666663,19.127999999999986,6.1960706989677510,19.549814141167417,0.56427301374941830
20220827030000,420.64561335766132,16.911528606102031,5.5166436758679653E-002,0,-17.249647187132233,0,-0.92072541010064513,2,1.0635330356298895,2,224.30568125048080,2.3089931187658306,4.1871581799369793,0.49955501893603216,0.37196444684633884,0.29142989754882326,0.22214938969786940,53.084452366291828,0.35792024129582689,100.77289066997540,184.24498400974878,220.49418903415290,276.03255987845790,93.942244075737847,78.440333333333328,17.752666666666642,4.3678014241487997,18.235509739346071,0.33321117390380023
20220827033000,420.84984370013473,16.943579270244754,7.9124973024923051E-002,0,-34.425520483856566,0,2.3368970068161437,1,3.6232396455934914,0,233.67142589930830,2.7248475025363619,4.9572135386046883,0.54834600167897030,0.43829767091311822,0.32942267600324282,0.26596623177346740,45.647650781060982,0.41623171565015171,105.51478233183582,192.91467431640720,230.86959406142225,289.02133578224993,93.944167690538194,79.499333333333340,17.570333333333338,4.1057826831065105,18.064562054104329,0.31908636982180710
20220827040000,420.07206207596886,16.917564345229138,7.7480039479485105E-002,0,-28.936007081513328,0,1.6695470717341436,1,2.6255568750314224,0,236.05113581624192,2.7222946163194521,4.4947069718355070,0.56747673676432397,0.42359248596866084,0.32188636195639975,0.26310478452236102,52.576747119529003,0.36137648372968051,106.56039833769395,194.82639385723672,233.15743409181158,291.88544001532324,93.953218009114593,80.145333333333326,17.419333333333327,3.9386767259473801,17.915295399136085,0.28125928800762195
20220827043000,421.03571518981238,16.917076119019526,9.4287678998344171E-002,0,-33.541415977634990,0,-1.7246323869506612,2,1.5140846373671888,2,234.18520220262849,2.6641120258211353,5.1259982380146774,0.56964510689272907,0.49677637932587432,0.39529334798899296,0.29012903083785713,60.818610264096186,0.31240437618510514,97.766990046733994,178.74923898763029,213.91718587554112,267.79893237946237,93.953268900390626,81.303333333333327,17.192000000000007,3.6560279865377696,17.690764109293696,0.36606662306910109
20220827050000,425.99269055934548,16.882138912776469,4.2965787351566392E-002,0,-7.1679393611209470,2,-0.85030002570418262,1,-0.73180787539530590,2,222.81976858609804,2.1122697876710896,3.7276675401449753,0.52371231775344040,0.49339362795853975,0.30509366299146334,0.19563804025372106,87.264805222020456,0.21772809727426662,151.32969605039509,1355.0000000000000,2463.0000000000000,6539.0000000000000,93.964389797309025,84.250000000000000,16.600000000000023,2.9663192842868762,17.101153928968756,0.40909061355307236
20220827053000,428.45225050263349,16.671349353951030,4.0379823313401175E-002,0,-23.947630837139350,0,-3.5906339837289369,1,4.4871659261422181,0,218.38597429449607,2.1482287344294435,3.8035172254624436,0.51846739153892907,0.39492023575096069,0.28610665192283347,0.18947793937230217,23.728472376506144,0.80072579888506168,184.51744097471698,1720.0000000000000,3163.0000000000000,8567.0000000000000,93.965360231770831,86.043333333333337,16.072333333333347,2.5416719390816684,16.587583268907338,0.28381811187263228
20220827060000,429.54668967995900,16.500836683841044,7.0724084922100472E-002,0,-28.618997644069186,0,-1.1569428821558270,0,4.7717067069023660,0,221.05671384749047,2.2451390905156368,3.9226012404057689,0.51339079689742284,0.44535308840057969,0.32647244732394659,0.25065964065253804,45.964544466944886,0.41336208637211080,101.35500563512632,185.30927582209054,221.76787450960427,277.62706295270624,93.960106484487852,86.426666666666662,15.841000000000008,2.4355928854559465,16.339349580576766,0.26176718598593479
20220827063000,431.61469984431983,16.413906592479897,8.6739253183002518E-002,0,-41.950977541284026,0,-2.7667370418010888,0,17.226593125952050,0,217.67350022453360,1.9678470792845824,4.4473036228863725,0.62426376729118027,0.45133395133074150,0.37912541991667026,0.27743416371784035,42.517777566549100,0.44687189894300278,97.534110627133785,178.32346113551966,213.40763853174548,267.16103957011768,93.965478453993057,87.670000000000002,15.536333333333346,2.1697457001806995,16.043787631564669,0.29684226652647167
20220827070000,431.70719078940539,16.343259292647605,6.9562517556067613E-002,0,-32.940861508545858,0,-1.3423366237973782,0,13.766717187101079,0,214.02570749576830,1.9504920374504975,3.8829426808080227,0.52869572535976139,0.43416049746179319,0.34238473262666208,0.24843929013248059,38.881935152047866,0.48865880583619287,96.876761203327263,177.12161673795558,211.96933774320345,265.36045765784348,93.963889673177079,87.420000000000002,15.513333333333321,2.2104768732422646,16.023936704847586,0.30807405032708624
20220827073000,434.32151077712007,16.339353703702432,7.3192385373866728E-002,0,-40.931243751070909,0,-3.9041945164361489,0,19.402758506403288,0,213.69144918722316,1.9063457728097692,3.8560438880846881,0.54658045231381613,0.44284436432390023,0.35469069203772080,0.25474391018018888,33.732447281659333,0.56325590139825077,96.085557662909153,175.67504432464457,210.23816002421975,263.19322858269720,93.955271622612855,88.753333333333330,15.272333333333336,1.9458602951798911,15.776163308885316,0.30857439672569620
20220827080000,433.15165049915908,16.288416159815977,6.9834678251343887E-002,0,-38.001651971593432,0,-1.2293893210489135,2,16.729693175985627,0,211.39439646829339,1.9259644479098763,4.2686834038215897,0.56988329872839960,0.45642396827815396,0.35121858139138151,0.24878926515010608,33.839981571858090,0.56146602679596980,95.029451407496055,173.74414526193507,207.92736700465832,260.30038993088124,93.940521483072928,89.256666666666661,15.133333333333326,1.8422420442289695,15.654558195326103,0.34189067875433077
20220827083000,427.38911458911429,16.111272587984161,9.5733553230679266E-002,0,-37.605575109113914,0,-5.7584971277711929,1,11.974897159044845,0,215.41879824581412,2.2420788926524300,4.6559025150510909,0.64836055122673408,0.48421358833266032,0.39804984597891641,0.29133839243358783,54.904824845638160,0.34605337606335029,97.549064142703884,178.35080093116099,213.44035728444692,267.20199956595144,93.923865561631942,87.926666666666662,15.194000000000017,2.0783987146621596,15.690485587226021,0.31665898883662624
20220827090000,427.46727551656716,15.874765018631273,0.11267504983379968,0,-59.312016062553077,0,-4.1376985306048120,1,17.396128407537269,0,212.73994718900357,2.2354693398870031,5.8391085419642890,0.73315706474590070,0.57918398358217527,0.43181748977287199,0.31598804259574137,44.407593216323683,0.42785475689810260,97.532922108167938,178.32128814379141,213.40503801563659,267.15778403253785,93.905047357421878,87.606666666666669,15.017666666666685,2.1094230887997676,15.484140858120384,0.31963291638561842
20220827093000,428.38522897928374,15.685853260469777,0.10743967601746403,0,-61.995207796770487,0,-4.7315535823549464,1,11.647394875604272,1,200.16497428912231,2.1224082414034280,5.0749174395292203,0.68683975342437453,0.73390515404517775,0.43841446356767932,0.30848542643218885,39.519258592925837,0.48077825031366112,94.522396159343259,172.81708655133480,206.81791450216826,258.91148705018691,93.872087071397573,87.763333333333335,14.798666666666691,2.0535776113144788,15.305895375569662,0.33431543277156972
20220827100000,436.25871587526410,15.706653143531746,0.12695120951196562,0,-56.453551479474264,0,-4.4677186401639029,0,10.942620446804863,1,181.40109468213225,2.0435121829280165,4.7737142728512456,0.66137580837823373,0.73156923238714799,0.49208496835564697,0.33521765498546646,55.665702727725147,0.34132327571491811,92.105237680068441,168.39774993806341,201.52909729040277,252.29051549493769,93.822596782118055,89.810000000000002,14.454000000000008,1.6724651196104197,14.914262591891884,0.27695673248998165
20220827103000,440.00717780951027,15.782304115416101,0.22255366075066937,0,-62.461039953500894,0,-5.5216573284647614,1,15.224066217615922,0,185.33492394038043,2.4340699383189284,6.0228452069707696,0.91683009096388135,0.81758357020270711,0.62465400279877636,0.44374048728665083,116.68961748575080,0.16282511168845101,95.245951062758778,174.13997568077889,208.40107491951474,260.89341602805541,93.807938914496532,91.293333333333337,14.272666666666680,1.4123402444033719,14.751950128343367,0.21506730816452482
20220827110000,443.24308980015070,15.649666382938202,0.21893837648145792,0,-56.135244163405325,0,-2.8304384867446255,2,15.988122009431924,0,191.67787174648709,2.3881524326597523,5.9608655677482627,0.92560051214080907,0.78786194896102135,0.65910730944365303,0.44003596555388524,126.63541607888114,0.15003701640751835,90.631785684772865,165.70380975725195,198.30513893589415,248.25450220390843,93.832840717664936,90.673333333333332,14.251666666666665,1.5108567923490455,14.670047719319655,0.21663071644961637
20220827113000,444.44088851684086,15.482770792959302,0.18168097963236970,0,-47.344238538178551,0,-0.83417128742303215,1,15.789151913714406,0,186.16414307035600,2.1907803703640130,5.4506810659603806,0.81396922075487599,0.77308660415667163,0.58310297092095598,0.40065585202129211,113.32802889259277,0.16765490572510838,92.741878609065566,169.56173260248025,202.92208725438914,254.03437363164619,93.826370290581607,91.343333333333334,13.971666666666692,1.3770950542031484,14.384587582058430,0.19148111197264583
20220827120000,440.81494820978691,15.453761865798199,0.37808012686572945,0,-29.719473462868713,1,8.3139708715236385,1,12.395672807627689,1,202.32680724643873,2.7323490916402613,7.6918885077426991,1.0812151519918287,0.91105142526412930,0.76577610869092172,0.57807346337557153,542.37952532877591,3.5030820878577063E-002,99.990761614644924,182.81500264933655,218.78286656807501,273.89018722383963,93.858440068576400,90.030000000000001,14.171333333333337,1.6066894245230423,14.576902164035346,0.22073866452116267
20220827123000,427.48070704709568,15.684761262251483,0.40857997024836562,0,-15.346682600284604,1,27.186547981716814,0,8.1809703839843699,1,205.58148060665519,2.7226321752174631,6.9694208698170979,1.1308115660144153,0.89441868645382139,0.76056254456159889,0.60189939743575505,1185.8883815328484,1.6021743948145522E-002,103.84033476008905,189.85325011759173,227.20585119409060,284.43476446789504,93.878488477723977,85.923333333333332,15.127666666666642,2.4129548202260866,15.547426823043793,0.33647290251224943
20220827130000,422.44057970847194,16.108155344791967,0.22865637716967913,0,-16.367985595281930,1,6.8970077016219431,2,3.0865420767400966,0,188.39421212936477,2.5368607210798948,6.9253568039464595,0.99979020548492159,0.97045017745671269,0.71271956908995793,0.45084572566313302,467.19116542848701,4.0668577246262869E-002,86.804515701429366,158.70633958254544,189.93095431559016,237.77101677618464,93.842933658203123,85.006666666666661,15.704000000000008,2.6669143864778562,16.149456524319135,0.13232109267562434
20220827133000,421.77203284152256,16.390119633402477,0.37899160169368618,0,12.395873064777060,1,36.576956179846199,0,0.14310999087350185,2,191.68813634264211,2.6333215868486630,7.3766109431214959,1.2130459657963495,1.0413258339565634,0.78515058858694420,0.58066473498154070,-1317.8719298777855,-1.4417182405396545E-002,98.363255108139100,179.83940168886645,215.22183219748183,269.43219475956772,93.826369662977442,85.653333333333336,15.853999999999985,2.5765006406191264,16.328949261983269,0.15390169919431373
20220827140000,417.45626707379063,16.595800558456897,0.45084244103371068,0,-5.5602773136857913,1,41.175587213937028,0,3.7993075632978028,0,204.79449244960261,2.6988937292679700,8.2906771817712457,1.2778311142341678,1.0199871647997836,0.84241441986457566,0.63380525737944571,3821.4855389564632,4.9718884989391711E-003,99.723826834774968,182.32696073725276,218.19880504695431,273.15901150665792,93.846817117838540,84.109999999999999,16.337666666666678,2.9431371341073942,16.834861751980270,0.10319740848833063
20220827143000,416.29665682398849,16.638702222181703,0.30830974553572144,0,-18.890944663533467,0,33.398869482629365,0,5.8210877714131621,0,208.37609424689316,2.7293496277097651,7.5918423096482250,1.1409748390980765,0.95648718681077172,0.75170422822792882,0.52411427983267800,636.14330772890366,2.9867483897350007E-002,93.833539640481376,171.55763713533690,205.31067521908798,257.02460232329020,93.866752330988163,84.120000000000005,16.379666666666651,2.9491642100117521,16.900583179082616,8.1980065092928850E-002
20220827150000,417.65553643169972,16.953380312276948,0.30352828402181675,0,-13.900830678642485,2,-20.713856011646140,2,3.4551435650439122,1,202.34789773052103,2.7689760923494751,7.1901126123818591,1.0963188121039584,0.99092551364206327,0.76482224542339616,0.51973728323456758,843.12533868868070,2.2535202215071423E-002,91.924989384827228,168.06819856711721,201.13470846797475,251.79678748913796,93.875585236979163,87.586666666666673,16.041666666666686,2.2561909894968313,16.513170504252230,0.33948812772955156
20220827153000,419.53821065681473,17.747525724130028,0.58430907787868558,0,-25.766734097969739,0,-4.7238817516999365,1,1.2373139042711541,0,161.85067355304301,3.8860507114725902,14.000407580267940,2.0073419259210734,1.5490280263947196,0.98436197559804539,0.72092268904081325,1212.9356700644394,1.5664474603991646E-002,97.598241244557641,178.44071235758184,213.54795829817397,267.33670326673695,93.752565574652806,95.286666666666662,15.420000000000016,0.82325328984230506,15.987742572360617,0.14745848116001939
20220827160000,415.11504891551073,18.473136679479399,1.4141817130328163,0,-11.712278628499520,1,-30.539442642751595,1,-0.51169993146690496,2,144.00422962300635,3.9271076890589831,17.442376772990794,2.9894713322001807,3.2400656549386784,1.4064982037686138,1.1243172168993412,10098.054325010638,1.8815505827633765E-003,104.67781366363928,191.38442865347835,229.03828083309213,286.72874893191374,93.427511632161483,96.716666666666669,15.758666666666670,0.58606469550225260,16.395265492474550,0.35582684182868218
20220827163000,409.33739922613211,18.967190231579526,1.1093297663916772,0,0.69301870546770794,2,-12.332182783308154,2,-8.0725523604716862,1,140.36172944864228,3.6746961626782904,12.489280695603030,1.9619222917045920,1.5443792957498494,1.2201829552352759,0.99611840335205015,-118820.42754980056,-1.5990516438797221E-004,106.45442233185973,194.63263591925826,232.92555532651923,291.59515531691250,93.562588194878472,95.980000000000004,16.314333333333366,0.74347610288824173,17.029858713785870,0.17440982144796893
20220827170000,406.47912790777855,19.201137135182851,0.80367304076328505,0,28.274989865254632,0,19.656048502845060,0,-11.198197692345088,0,141.08239994029577,4.3543311812147003,12.332543156807750,1.8661185267838181,1.5520861946663698,1.1867547460390062,0.84857326114211129,-1800.7336300407162,-1.0551255156805392E-002,95.745328233159029,175.05299641645021,209.49372755136369,262.26128746425218,93.580287146267366,94.013333333333335,16.835666666666668,1.1445201113658983,17.564274475097704,8.7245241025987144E-002
20220827173000,408.85056233166415,19.088393861830333,0.93715598572523695,0,3.2639586802401923,0,21.332996886303949,0,-3.3796058892321397,0,136.13336317936100,4.1287065887999441,13.062646701009244,1.9259527882089644,1.4052056632203545,1.1167171966348222,0.91650473422599155,-19648.209329943358,-9.6700924145003359E-004,106.90748348567899,195.46097620488371,233.91686708735196,292.83616000814220,93.546584340494803,93.346666666666664,16.849333333333334,1.2730758199237879,17.546155487060560,8.1641553457181243E-002
20220827180000,408.92510181350178,19.164597944972083,0.97252300173519901,0,6.0024825062664240,0,21.189978513692662,0,-2.6645052481021434,0,135.74644014230628,4.2509965489429185,12.117081528729127,1.8100330464107388,1.4821284243599915,1.1282386007535337,0.93415604247400208,-11310.849563802023,-1.6798030857739876E-003,107.66379356531689,196.84375224318993,235.57169683927648,294.90781048830979,93.515470177379640,92.409999999999997,17.065999999999974,1.4723886441530614,17.747320341140664,0.10355946130027466
20220827183000,407.19377613058685,19.351744190683782,0.67967127534386584,0,3.7458795023469413,1,33.195718402048037,0,-1.0708451435765087,0,144.06613198265646,4.2108693197123364,11.139364003836839,1.7533728075627810,1.5127785346185609,1.1502211674282465,0.78142372846618657,-10611.314082754716,-1.7905416663595323E-003,91.904989781951386,168.03163291451398,201.09094872080667,251.74200547840405,93.538894328764783,90.946666666666673,17.475999999999999,1.8023973930378907,18.153120843953161,9.2798377343448965E-002
20220827190000,406.76653256713968,19.468585976976350,1.1907231165919197,0,17.981923895251576,0,51.290878433462481,0,-5.3733369599770509,0,136.37459279933486,4.4053893003472879,12.646739757880079,2.0855562947320907,1.5137039396178134,1.2365784084409921,1.0351658208217105,-5136.7017707108262,-3.6988715421122738E-003,108.61392588725427,198.58089715685324,237.65061562792980,297.51037011822598,93.483463723090281,89.689999999999998,17.782666666666671,2.0926679613872738,18.450952656216089,0.22148670535274481
20220827193000,404.59434098112729,19.685785207765122,1.3331433940087767,0,61.583073464658121,1,140.71946082474315,0,-15.013330668404890,0,142.13769654663312,4.6836405341061891,13.335518907282699,2.1693410836262683,1.8254573165759722,1.3549042644455833,1.0978001456889874,-1788.5417771158454,-1.0623179309034027E-002,105.81485455505431,193.46330204357758,231.52616132936853,289.84328009061244,93.445432732638878,84.223333333333329,18.956000000000017,3.4467527051208595,19.603775974697669,0.36429425143015504
20220827200000,405.36978600851910,19.468812699933871,1.3152052234120726,0,80.248176948280829,0,112.65413880826603,0,-15.611857017663343,0,141.35550008938566,4.9942966609240980,13.668868884292150,2.2974140696782066,1.9521901244366935,1.4413643887645395,1.0913624145320353,-1347.8546410918614,-1.4096475555115204E-002,100.23307727010031,183.25803295012349,219.31306068659930,274.55392734510923,93.383565715928825,81.433333333333337,19.307999999999993,4.1462752308044450,19.901114205254487,0.19744938553351704
20220827203000,404.84848531663579,19.609197925014740,1.4688911638078030,0,30.125299118398019,1,102.62758675507482,0,-9.1904077102646369,1,135.87627703595157,5.1134299595707278,13.471975098844755,2.2998514902723386,1.7852788448035923,1.4500626486297896,1.1537774110391765,-4240.7149762633990,-4.4803765653548778E-003,104.29010690428846,190.67557704465625,228.18996650055914,285.66676005222314,93.330009855468745,81.844333333333338,19.333333333333314,4.0608898180837967,19.976633990817675,0.25478301448980295
20220827210000,404.29869593992578,19.735260924548079,1.3980030275720308,0,176.84766102208167,0,199.13676696223342,0,-16.362702458146003,0,140.20887928304626,5.4282098656750328,16.906911848693767,2.5375118178439489,1.9839477067484343,1.4818995787205487,1.1278024649134493,-674.52935021958558,-2.8167788390252788E-002,100.64363446156436,184.00866243662009,220.21137246848983,275.67850709848227,93.293428833984393,77.291333333333327,20.353666666666641,5.4109216232826176,20.834067465888154,0.30011016996435252
20220827213000,405.75661289035844,19.522937917389466,1.4245884058296390,0,146.88123708558578,0,187.96755064022540,0,-14.291568975648598,0,142.14691971837783,4.7478591728722028,13.684691147339970,2.2788668769755378,1.8758908144584681,1.4092927396367096,1.1386066107883190,-835.58073773263084,-2.2738676398353766E-002,105.57300636535868,193.02112641929006,230.99699004032658,289.18082043048139,93.277957114592596,76.245999999999995,20.396333333333359,5.6749281314509155,20.876757625304720,0.24121288382868647
20220827220000,406.70110475000592,19.480725023667588,1.2924920090200569,0,79.396039592177047,0,132.69576840752157,0,-5.9677268623485906,1,141.90667917513116,4.6387298051170562,13.571868335276019,2.2714222272896261,1.8057143538992131,1.3918860886942146,1.0849334854594483,-1337.1375641566299,-1.4209457956544533E-002,102.58749734500789,187.56266375082379,224.46460433699050,281.00304869099119,93.258056078342008,75.323999999999998,20.555000000000007,5.9531844801270584,21.061284140692806,0.18342880597868985
20220827223000,407.12466971822437,19.563983087186486,0.78421871665255205,0,28.858956003609681,0,81.051314761630209,0,-2.9321717894474921,0,145.19543191791519,4.0947337354192426,11.730533209363633,1.8876892941892969,1.5636324856153008,1.1139475876476248,0.84499481950087607,-1738.1327998112106,-1.0931270615262370E-002,100.37980115792844,183.52629101225722,219.63409707290833,274.95582680520465,93.267050069444451,75.903999999999996,20.501333333333321,5.7940506882177241,21.102796005249047,0.12811806352198857